Hourly Data Report for October 29, 2014

All times are specified in Local Standard Time (LST). Add 1 hour to adjust for Daylight Saving Time where and when it is observed.

RANKIN INLET A
NUNAVUT

62°48'38.000" N
92°06'53.000" W
32.30 m
2303405
71083
YRT

Download Data

Hourly Data (October 2014)
Hourly Data Report for October 29, 2014
Temp Definition
°C
Dew Point Temp Definition
°C
Rel Hum Definition
%
Wind Dir Definition
10's deg

Wind Spd Definition
km/h
Visibility Definition
km
Stn Press Definition
kPa
Hmdx Definition


Wind Chill Definition


Weather Definition


TIME
00:00 Legend Double Dagger -10.5 -11.8 90 33 17 24.1 101.63   -18 Snow
01:00 Legend Double Dagger -10.7 -12.0 90 33 16 12.9 101.59   -18 Snow
02:00 Legend Double Dagger -11.2 -12.7 89 33 17 8.1 101.59   -19 Snow,Fog
03:00 Legend Double Dagger -11.8 -13.4 88 33 15 0.8 101.57   -19 Snow,Freezing Fog
04:00 Legend Double Dagger -12.0 -13.7 87 32 12 0.8 101.53   -18 Snow,Freezing Fog
05:00 Legend Double Dagger -12.0 -13.7 87 33 9 0.8 101.52   -17 Snow,Freezing Fog
06:00 Legend Double Dagger -12.1 -13.8 87 32 6 0.4 101.51   -16 Freezing Fog
07:00 Legend Double Dagger -12.1 -14.0 86 3 3 0.6 101.47   -14 Freezing Fog
08:00 Legend Double Dagger -12.7 -14.6 86 35 5 0.4 101.45   -16 Freezing Fog
09:00 Legend Double Dagger -11.5 -13.3 87 34 4 0.4 101.41   -14 Freezing Fog
10:00 Legend Double Dagger -10.7 -12.5 87 35 3 0.6 101.39   -13 Freezing Fog
11:00 Legend Double Dagger -9.9 -11.5 88 36 2 0.4 101.36   -11 Freezing Fog
12:00 Legend Double Dagger -10.9 -12.7 87 3 3 0.6 101.35   -13 Freezing Fog
13:00 Legend Double Dagger -10.2 -11.8 88 36 2 16.1 101.36   -11 LegendNANA
14:00 Legend Double Dagger -9.1 -10.6 89 36 3 16.1 101.36   -11 Snow
15:00 Legend Double Dagger -8.8 -10.3 89 36 2 6.4 101.37   -10 Snow
16:00 Legend Double Dagger -8.2 -9.6 90 8 4 12.9 101.37   -10 Snow
17:00 Legend Double Dagger -7.3 -8.5 91 5 3 16.1 101.38   -9 Snow
18:00 Legend Double Dagger -7.2 -8.4 91 5 5 16.1 101.42   -10 Snow
19:00 Legend Double Dagger -7.2 -8.4 91 4 8 6.4 101.45   -11 Snow
20:00 Legend Double Dagger -8.2 -9.6 90 8 11 6.4 101.49   -13 Snow
21:00 Legend Double Dagger -8.9 -10.4 89 8 10 16.1 101.51   -14 Snow
22:00 Legend Double Dagger -8.9 -10.4 89 6 13 16.1 101.56   -15 Snow
23:00 Legend Double Dagger -9.5 -11.0 89 5 12 12.9 101.60   -15 Snow

Notes on Data Quality.

Legend

  • E = Estimated
  • M = Missing
  • NA = Not Available
  • ‡ = Partner data that is not subject to review by the National Climate Archives
Date modified: